Miscellaneous Local Product
Issued by NWS Hastings, NE

Home | Current Version | Previous Version | Graphics & Text | Print | Product List | Glossary On
Versions: 1 2 3 4 5 6 7 8 9 10 11 12 13 14 15 16 17 18 19 20 21 22 23 24 25 26 27 28 29 30 31 32 33 34 35 36 37 38 39 40 41 42 43 44 45 46 47 48 49 50
000
AXUS43 KGID 111202
MISGRI

GID CWA HOURLY WEATHER ROUNDUP
NATIONAL WEATHER SERVICE HASTINGS NE
700 AM CDT FRI JUL 11 2014

NOTE: "FAIR" INDICATES FEW OR NO CLOUDS BELOW 12,000 FEET WITH NO
SIGNIFICANT WEATHER AND/OR OBSTRUCTIONS TO VISIBILITY.

...SOUTH CENTRAL NEBRASKA...

CITY           SKY/WX    TMP DP  RH WIND       PRES   REMARKS
GRAND ISLAND   CLOUDY    69  66  90 SE9       29.96F
HASTINGS       CLOUDY    70  65  84 E7        29.99S
KEARNEY        CLOUDY    70  66  88 S9        29.96S
ORD            CLOUDY    68  67  96 S6        29.93R
YORK           CLOUDY    68  68 100 S9        29.98F
AURORA         CLOUDY    69  68  97 SE6       29.98R
LEXINGTON      CLOUDY    70  68  93 S8        29.95S
HOLDREGE       CLOUDY    69  66  92 SE8       29.97S
HEBRON         CLOUDY    72  66  83 CALM      29.99R

...NEBRASKA PANHANDLE...

CITY           SKY/WX    TMP DP  RH WIND       PRES   REMARKS
CHADRON        CLOUDY    67  64  90 SW6       29.97R
ALLIANCE       MOCLDY    63  62  97 SW3       30.01R
SCOTTSBLUFF    MOCLDY    63  61  93 MISG      30.03R
SIDNEY         CLOUDY    63  60  90 NW6       30.07R

...WESTERN AND NORTH CENTRAL NEBRASKA...

CITY           SKY/WX    TMP DP  RH WIND       PRES   REMARKS
VALENTINE      MOCLDY    66  64  93 CALM      29.93R
AINSWORTH      PTCLDY    66  63  90 CALM      29.93R
ONEILL         CLOUDY    70  66  86 SE5       29.92S
BROKEN BOW     CLOUDY    70  69  97 SE6       29.94R FOG
IMPERIAL       CLOUDY    70  67  90 NE6       30.00R FOG
NORTH PLATTE   CLOUDY    68  66  93 CALM      29.98R
MCCOOK         PTCLDY    69  68  96 E9        29.96R FOG

...EASTERN NEBRASKA...

CITY           SKY/WX    TMP DP  RH WIND       PRES   REMARKS
NORFOLK        LGT RAIN  68  65  90 SE12      29.95F
SO SIOUX CITY  TSTM      69  67  93 SE5       30.00S
TEKAMAH        CLOUDY    70  67  90 NW10      30.03R
ALBION         CLOUDY    67  65  96 SE8       29.96S
OMAHA EPPLEY   CLOUDY    71  64  78 S10       29.97F
OFFUTT AFB     MOCLDY    68  68  99 SE7       29.97F
MILLARD        MOCLDY    71  66  83 S5        29.98S
LINCOLN        MOCLDY    72  65  78 SW7       30.01R
NEBRASKA CITY  PTCLDY    69  65  88 S14       29.99S
BEATRICE       PTCLDY    68  65  90 CALM      29.99R
FALLS CITY     PTCLDY    69  66  90 SE10      29.99S

...NORTHERN KANSAS...

CITY           SKY/WX    TMP DP  RH WIND       PRES   REMARKS
GOODLAND       PTCLDY    68  54  60 S8        29.99R
HILL CITY      MOCLDY    69  65  86 CALM      29.94R
NORTON         PTSUNNY   68  64  88 NE8       29.96R FOG
PHILLIPSBURG   CLOUDY    70  70 100 E7        29.95R
SMITH CENTER   CLOUDY    66  66 100 E9        29.98R
BELOIT         CLEAR     66  64  94 SE9       29.94S
HAYS           CLEAR    N/A N/A N/A S3        29.95S
RUSSELL        CLEAR     69  67  93 S10       29.94S
CONCORDIA      CLEAR     68  67  96 S12       29.96S
SALINA         CLEAR     71  66  84 S12       29.97S
TOPEKA         MOCLDY    72  67  84 SE9       30.02S



USA.gov is the U.S. government's official web portal to all federal, state and local government web resources and services.